Location: Bosmont
(49.7318°N, 3.8587°E)
Time: 07:57:29
(UTC+00:00)

Cosmos 2285 Rocket - Pass Details

Date: 08 February 2023
Orbit: 971 x 998 km, 74.0° (Epoch: 22 March)

Event Time Altitude Azimuth Distance (km) Brightness Sun altitude
Rises 19:03:44 0° 338° (NNW) 3,694 7.4 -21.8°
Reaches altitude 10° 19:06:28 10° 345° (NNW) 2,739 6.5 -22.2°
Maximum altitude 19:12:27 42° 56° (NE) 1,360 4.4 -23.2°
Enters shadow 19:12:39 42° 61° (ENE) 1,362 4.3 -23.2°
